This is the latest recevied weather packets stored in our database for station/object VA3JLF-1. If no packets are shown the sender has not sent any weather packets the latest 10 day(s).
| Time | Temp. | Humidity | Pressure | Rain* | Wind** | Luminosity | Snow |
|---|---|---|---|---|---|---|---|
| 1777558559 | 7.78° C | 85% | 1005.7 hPa | 0 mm | - | - | - |
| 1777557959 | 7.22° C | 87% | 1005.7 hPa | 0 mm | - | - | - |
| 1777556759 | 7.22° C | 86% | 1005.7 hPa | 0 mm | - | - | - |
| 1777555559 | 7.22° C | 84% | 1005.9 hPa | 0 mm | - | - | - |
| 1777554959 | 6.67° C | 87% | 1005.8 hPa | 0 mm | - | - | - |
| 1777554358 | 7.22° C | 87% | 1005.8 hPa | 0 mm | - | - | - |
| 1777553759 | 6.67° C | 88% | 1006 hPa | 0 mm | - | - | - |
| 1777553159 | 7.22° C | 89% | 1005.7 hPa | 0 mm | - | - | - |
| 1777552559 | 7.22° C | 89% | 1005.9 hPa | 0 mm | - | - | - |
| 1777551959 | 6.67° C | 90% | 1005.9 hPa | 0 mm | - | - | - |
| 1777551359 | 6.67° C | 90% | 1005.8 hPa | 0 mm | - | - | - |
| 1777550759 | 6.11° C | 90% | 1005.8 hPa | 0 mm | - | - | - |
| 1777550159 | 6.67° C | 92% | 1005.8 hPa | 0 mm | - | - | - |
| 1777549560 | 6.11° C | 93% | 1005.6 hPa | 0 mm | - | - | - |
| 1777548359 | 6.67° C | 93% | 1005.3 hPa | 0 mm | - | - | - |
| 1777547759 | 6.67° C | 93% | 1005.4 hPa | 0 mm | - | - | - |
| 1777547158 | 6.11° C | 95% | 1005 hPa | 0 mm | - | - | - |
| 1777545958 | 6.11° C | 96% | 1005.1 hPa | 0 mm | - | - | - |
| 1777545359 | 6.11° C | 96% | 1004.9 hPa | 0 mm | - | - | - |
| 1777544757 | 6.11° C | 96% | 1004.9 hPa | 0 mm | - | - | - |
| 1777544157 | 6.11° C | 96% | 1004.5 hPa | 0 mm | - | - | - |
| 1777543558 | 6.11° C | 96% | 1004.5 hPa | 0 mm | - | - | - |
| 1777542958 | 6.11° C | 96% | 1004.4 hPa | 0 mm | - | - | - |
| 1777542358 | 6.11° C | 96% | 1004.7 hPa | 0 mm | - | - | - |
| 1777541758 | 6.11° C | 96% | 1004.4 hPa | 0 mm | - | - | - |
* Rain latest hour (hover to see other rain measurements)
** Current wind speed in m/s (hover to see current wind gust speed)